When you browse on this site, cookies collect data to enhance your experience and personalize the content and advertising you see.
Visit our Privacy Policy to learn more. By continuing to use the site, you agree to this use of cookies and data.
  • Em Portugal
  • Lista de países
  • Para 7 dias
  • Temperatura da água
  • Mapas de satélite
  • Mapa do tempo
  • Widgets de tempo
  • user-avatar
    Iniciar Sessão

    Previsão horária em Tilevichi

    Hoje, 17 Janeiro, Quinta-feira

    Tempo Temperatura Precipitação Vento Pressão Humidade
    00:00 -14°C° 0 mm 3 m/s 736 mmHg 96%
    01:00 -14°C° 0 mm 3 m/s 736 mmHg 96%
    02:00 -13°C° 0 mm 3 m/s 736 mmHg 97%
    03:00 -12°C° 0 mm 4 m/s 736 mmHg 96%
    04:00 -11°C° 0 mm 5 m/s 735 mmHg 95%
    05:00 -10°C° 0 mm 6 m/s 735 mmHg 94%
    06:00 -9°C° 0.1 mm 6 m/s 734 mmHg 94%
    07:00 -8°C° 0.1 mm 7 m/s 734 mmHg 93%
    08:00 -6°C° 0 mm 6 m/s 733 mmHg 92%
    09:00 -6°C° 0.3 mm 7 m/s 733 mmHg 92%
    10:00 -4°C° 0.3 mm 7 m/s 732 mmHg 92%
    11:00 -5°C° 0.3 mm 8 m/s 732 mmHg 92%
    12:00 -4°C° 0.4 mm 8 m/s 732 mmHg 92%
    13:00 -2°C° 0.4 mm 8 m/s 731 mmHg 92%
    14:00 -2°C° 0.4 mm 8 m/s 731 mmHg 93%
    15:00 -2°C° 0.1 mm 8 m/s 730 mmHg 91%
    16:00 -2°C° 0.1 mm 8 m/s 730 mmHg 90%
    17:00 -2°C° 0.1 mm 8 m/s 730 mmHg 88%
    18:00 -2°C° 0.2 mm 8 m/s 730 mmHg 89%
    19:00 -2°C° 0.2 mm 8 m/s 730 mmHg 90%
    20:00 -2°C° 0.2 mm 7 m/s 730 mmHg 90%
    21:00 -2°C° 0.1 mm 7 m/s 731 mmHg 90%
    22:00 -2°C° 0.1 mm 7 m/s 731 mmHg 90%
    23:00 -2°C° 0.1 mm 6 m/s 732 mmHg 91%

    Amanhã, 18 Janeiro, Sexta-feira

    Tempo Temperatura Precipitação Vento Pressão Humidade
    00:00 -2°C° 0 mm 6 m/s 732 mmHg 90%
    01:00 -2°C° 0 mm 6 m/s 733 mmHg 90%
    02:00 -3°C° 0 mm 6 m/s 733 mmHg 90%
    03:00 -3°C° 0 mm 6 m/s 733 mmHg 89%
    04:00 -2°C° 0 mm 6 m/s 733 mmHg 89%
    05:00 -1°C° 0 mm 5 m/s 734 mmHg 89%
    06:00 -1°C° 0 mm 5 m/s 734 mmHg 90%
    07:00 -2°C° 0 mm 5 m/s 734 mmHg 91%
    08:00 -2°C° 0 mm 4 m/s 734 mmHg 93%
    09:00 -2°C° 0 mm 4 m/s 734 mmHg 94%
    10:00 -1°C° 0 mm 4 m/s 734 mmHg 94%
    11:00 -1°C° 0 mm 4 m/s 734 mmHg 95%
    12:00 -1°C° 0.2 mm 5 m/s 733 mmHg 95%
    13:00 -2°C° 0.2 mm 6 m/s 733 mmHg 96%
    14:00 -2°C° 0.2 mm 7 m/s 733 mmHg 96%
    15:00 -2°C° 0.2 mm 7 m/s 733 mmHg 93%
    16:00 -2°C° 0.2 mm 7 m/s 733 mmHg 90%
    17:00 -2°C° 0.2 mm 7 m/s 733 mmHg 88%
    18:00 -3°C° 0.1 mm 7 m/s 733 mmHg 88%
    19:00 -4°C° 0.1 mm 7 m/s 734 mmHg 88%
    20:00 -4°C° 0.1 mm 7 m/s 735 mmHg 89%
    21:00 -6°C° 0.1 mm 6 m/s 736 mmHg 89%
    22:00 -7°C° 0.1 mm 5 m/s 737 mmHg 89%
    23:00 -10°C° 0.1 mm 5 m/s 738 mmHg 89%

    Depois de amanhã, 19 Janeiro, Sábado

    Tempo Temperatura Precipitação Vento Pressão Humidade
    00:00 -10°C° 0 mm 4 m/s 739 mmHg 91%
    01:00 -11°C° 0 mm 4 m/s 740 mmHg 92%
    02:00 -12°C° 0 mm 4 m/s 740 mmHg 94%
    03:00 -12°C° 0 mm 4 m/s 741 mmHg 94%
    04:00 -12°C° 0 mm 4 m/s 741 mmHg 94%
    05:00 -12°C° 0 mm 4 m/s 741 mmHg 95%
    06:00 -11°C° 0 mm 4 m/s 742 mmHg 93%
    07:00 -10°C° 0 mm 4 m/s 742 mmHg 92%
    08:00 -10°C° 0 mm 5 m/s 742 mmHg 91%
    09:00 -10°C° 0 mm 5 m/s 743 mmHg 91%
    10:00 -10°C° 0 mm 5 m/s 743 mmHg 91%
    11:00 -9°C° 0 mm 4 m/s 743 mmHg 91%
    12:00 -9°C° 0 mm 4 m/s 743 mmHg 90%
    13:00 -8°C° 0 mm 4 m/s 744 mmHg 90%
    14:00 -8°C° 0 mm 4 m/s 744 mmHg 89%
    15:00 -8°C° 0 mm 4 m/s 744 mmHg 90%
    16:00 -9°C° 0 mm 4 m/s 744 mmHg 91%
    17:00 -9°C° 0 mm 4 m/s 744 mmHg 92%
    18:00 -9°C° 0 mm 4 m/s 745 mmHg 93%
    19:00 -9°C° 0 mm 4 m/s 745 mmHg 93%
    20:00 -9°C° 0 mm 4 m/s 745 mmHg 94%
    21:00 -9°C° 0 mm 4 m/s 745 mmHg 93%
    22:00 -9°C° 0 mm 4 m/s 745 mmHg 93%
    23:00 -8°C° 0 mm 5 m/s 746 mmHg 92%

    20 Janeiro, Domingo

    Tempo Temperatura Precipitação Vento Pressão Humidade
    00:00 -8°C° 0 mm 4 m/s 746 mmHg 92%
    01:00 -7°C° 0 mm 4 m/s 746 mmHg 92%
    02:00 -7°C° 0 mm 4 m/s 746 mmHg 91%
    03:00 -7°C° 0 mm 4 m/s 746 mmHg 92%
    04:00 -7°C° 0 mm 5 m/s 746 mmHg 93%
    05:00 -7°C° 0 mm 5 m/s 745 mmHg 93%
    06:00 -7°C° 0 mm 5 m/s 745 mmHg 92%
    07:00 -7°C° 0 mm 5 m/s 745 mmHg 92%
    08:00 -8°C° 0 mm 6 m/s 745 mmHg 91%
    09:00 -8°C° 0 mm 6 m/s 745 mmHg 91%
    10:00 -8°C° 0 mm 6 m/s 745 mmHg 91%
    11:00 -9°C° 0 mm 6 m/s 744 mmHg 90%
    12:00 -8°C° 0 mm 6 m/s 744 mmHg 89%
    13:00 -8°C° 0 mm 6 m/s 744 mmHg 87%
    14:00 -8°C° 0 mm 6 m/s 744 mmHg 86%
    15:00 -8°C° 0 mm 6 m/s 743 mmHg 87%
    16:00 -9°C° 0 mm 6 m/s 743 mmHg 87%
    17:00 -10°C° 0 mm 6 m/s 743 mmHg 88%
    18:00 -10°C° 0.1 mm 6 m/s 743 mmHg 89%
    19:00 -10°C° 0.1 mm 6 m/s 743 mmHg 90%
    20:00 -11°C° 0.1 mm 6 m/s 743 mmHg 91%
    21:00 -10°C° 0.2 mm 5 m/s 743 mmHg 92%
    22:00 -10°C° 0.2 mm 5 m/s 743 mmHg 93%
    23:00 -9°C° 0.2 mm 4 m/s 743 mmHg 94%

    21 Janeiro, Segunda-feira

    Tempo Temperatura Precipitação Vento Pressão Humidade
    00:00 -9°C° 0.2 mm 4 m/s 742 mmHg 94%
    01:00 -8°C° 0.2 mm 3 m/s 742 mmHg 95%
    02:00 -7°C° 0.2 mm 3 m/s 742 mmHg 96%
    03:00 -9°C° 0 mm 3 m/s 742 mmHg 95%
    04:00 -10°C° 0 mm 3 m/s 742 mmHg 94%
    05:00 -13°C° 0 mm 3 m/s 742 mmHg 94%
    06:00 -14°C° 0 mm 3 m/s 743 mmHg 93%
    07:00 -14°C° 0 mm 3 m/s 743 mmHg 93%
    08:00 -16°C° 0 mm 4 m/s 743 mmHg 93%
    09:00 -15°C° 0 mm 4 m/s 744 mmHg 92%
    10:00 -15°C° 0 mm 4 m/s 744 mmHg 91%
    11:00 -14°C° 0 mm 4 m/s 745 mmHg 90%
    12:00 -12°C° 0 mm 4 m/s 745 mmHg 91%
    13:00 -12°C° 0 mm 3 m/s 745 mmHg 91%
    14:00 -10°C° 0 mm 3 m/s 745 mmHg 91%
    15:00 -10°C° 0 mm 3 m/s 745 mmHg 93%
    16:00 -10°C° 0 mm 3 m/s 745 mmHg 94%
    17:00 -10°C° 0 mm 3 m/s 745 mmHg 95%
    18:00 -10°C° 0 mm 3 m/s 745 mmHg 95%
    19:00 -10°C° 0 mm 3 m/s 745 mmHg 95%
    20:00 -10°C° 0 mm 3 m/s 745 mmHg 95%
    21:00 -12°C° 0 mm 3 m/s 745 mmHg 95%
    22:00 -13°C° 0 mm 3 m/s 745 mmHg 96%
    23:00 -14°C° 0 mm 3 m/s 745 mmHg 96%

    22 Janeiro, Terça-feira

    Tempo Temperatura Precipitação Vento Pressão Humidade
    00:00 -13°C° 0 mm 3 m/s 745 mmHg 96%
    01:00 -13°C° 0 mm 3 m/s 745 mmHg 96%
    02:00 -13°C° 0 mm 3 m/s 745 mmHg 96%
    03:00 -12°C° 0 mm 3 m/s 745 mmHg 96%
    04:00 -12°C° 0 mm 3 m/s 745 mmHg 95%
    05:00 -11°C° 0 mm 4 m/s 745 mmHg 94%
    06:00 -11°C° 0 mm 4 m/s 745 mmHg 94%
    07:00 -11°C° 0 mm 4 m/s 745 mmHg 94%
    08:00 -11°C° 0 mm 4 m/s 746 mmHg 94%
    09:00 -11°C° 0 mm 4 m/s 746 mmHg 93%
    10:00 -10°C° 0 mm 4 m/s 746 mmHg 92%
    11:00 -9°C° 0 mm 3 m/s 746 mmHg 91%
    12:00 -9°C° 0 mm 3 m/s 746 mmHg 90%
    13:00 -9°C° 0 mm 3 m/s 746 mmHg 90%
    14:00 -9°C° 0 mm 3 m/s 746 mmHg 90%
    15:00 -9°C° 0 mm 3 m/s 747 mmHg 92%
    16:00 -9°C° 0 mm 2 m/s 747 mmHg 93%
    17:00 -9°C° 0 mm 2 m/s 747 mmHg 95%
    18:00 -10°C° 0 mm 2 m/s 747 mmHg 96%
    19:00 -10°C° 0 mm 1 m/s 747 mmHg 97%
    20:00 -10°C° 0 mm 1 m/s 747 mmHg 97%
    21:00 -10°C° 0 mm 1 m/s 747 mmHg 97%
    22:00 -10°C° 0 mm 0 m/s 747 mmHg 97%
    23:00 -10°C° 0 mm 0 m/s 747 mmHg 97%
    Mostrar mais